Home > Weather > Betul > Past weeks

Flag for India Past Weather in Betul, Madhya Pradesh, India — Yesterday and Last 2 Weeks

Now
81 °F

Partly sunny.


Feels Like: 87 °F
Forecast: 75 / 82 °F
Wind: No wind

Location: Nagpur Sonegaon

Current Time: Jun 27, 2016 at 7:49:23 AM

Latest Report: Jun 27, 2016 at 7:30 AM


Visibility: 2 mi

Pressure: 29.65 "Hg (27.49 "Hg at 663m altitude)

Humidity: 89%

Dew Point: 77 °F

Location of BetulLocation

Past Weather in Betul — Graph

°F

Betul Temperature Yesterday

Maximum temperature yesterday: 100 °F (at 3:30 PM)
Minimum temperature yesterday: 79 °F (at 10:30 PM)
Average temperature yesterday: 86 °F

High & Low Weather Summary for the Past Weeks

 TemperatureHumidityPressure
High108 °F (Jun 12, 4:30 PM)100% (Jun 23, 4:00 AM)29.77 "Hg (Jun 23, 4:00 AM)
Low70 °F (Jun 23, 4:00 AM)15% (Jun 26, 3:30 PM)29.47 "Hg (Jun 16, 4:00 PM)
Average91 °F55%29.63 "Hg
* Reported Jun 12 6:30 AM — Jun 27 6:30 AM, Betul, Weather by CustomWeather, © 2016

Note: Actual official high and low records may vary slightly from our data, if they occured in-between our weather recording intervals... More about our weather records

Advertising

Betul Weather History for the Previous 24 Hours

Scroll right to see more
 ConditionsComfort  
Time TempWeatherWind HumidityBarometerVisibility
6:30 AM
Mon, Jun 27
81 °FScattered clouds.No wind89%29.65 "Hg2 mi
6:00 AM81 °FPassing clouds.No wind84%29.62 "Hg2 mi
5:30 AM79 °FPassing clouds.3 mph94%29.62 "Hg2 mi
5:00 AM79 °FPassing clouds.2 mph94%29.62 "Hg2 mi
4:00 AM79 °FPassing clouds.No wind94%29.62 "Hg2 mi
3:30 AM79 °FPartly cloudy.2 mph94%29.62 "Hg2 mi
3:00 AM79 °FPartly cloudy.2 mph94%29.62 "Hg2 mi
2:30 AM79 °FPartly cloudy.3 mph94%29.62 "Hg2 mi
2:00 AM77 °FPartly cloudy.3 mph94%29.62 "Hg2 mi
1:30 AM79 °FPartly cloudy.3 mph94%29.62 "Hg2 mi
12:30 AM79 °FPartly cloudy.6 mph94%29.62 "Hg2 mi
12:00 AM79 °FPartly cloudy.3 mph94%29.65 "Hg1 mi
11:30 PM
Sun, Jun 26
79 °FPartly cloudy.6 mph94%29.65 "Hg1 mi
11:00 PM79 °FRain. Partly cloudy.3 mph94%29.71 "Hg1 mi
10:30 PM79 °FThunderstorms. Partly cloudy.2 mph94%29.71 "Hg1 mi
10:00 PM81 °FThunderstorms. Partly cloudy.7 mph84%29.71 "Hg1 mi
9:30 PM81 °FThunderstorms. Passing clouds.10 mph79%29.71 "Hg1 mi
9:00 PM81 °FThunderstorms. Partly cloudy.7 mph84%29.71 "Hg1 mi
8:30 PM81 °FThunderstorms. Passing clouds.10 mph79%N/A2 mi
7:30 PM86 °FPartly cloudy.2 mph75%29.65 "Hg2 mi
6:30 PM86 °FBroken clouds.5 mph22%29.62 "Hg2 mi
4:30 PM84 °FThundershowers. Broken clouds.12 mph22%29.59 "Hg2 mi
4:00 PM86 °FThundershowers. Broken clouds.12 mph22%29.59 "Hg2 mi
3:30 PM100 °FBroken clouds.6 mph15%29.56 "Hg2 mi
3:00 PM88 °FThunderstorms. Broken clouds.10 mph22%29.56 "Hg1 mi
2:30 PM95 °FRain. Scattered clouds.12 mph20%29.59 "Hg1 mi
1:30 PM99 °FScattered clouds.5 mph18%29.59 "Hg4 mi
1:00 PM97 °FScattered clouds.2 mph50%29.62 "Hg4 mi
12:00 PM95 °FScattered clouds.6 mph53%29.65 "Hg4 mi
11:30 AM95 °FScattered clouds.5 mph53%29.65 "Hg4 mi
10:30 AM91 °FScattered clouds.5 mph59%29.68 "Hg4 mi
10:00 AM90 °FScattered clouds.5 mph63%29.68 "Hg4 mi
9:30 AM90 °FHaze.8 mph63%29.68 "Hg3 mi
9:00 AM88 °FHaze.7 mph66%29.68 "Hg3 mi
8:30 AM88 °FHaze.8 mph66%29.68 "Hg3 mi
8:00 AM86 °FHaze.6 mph70%29.68 "Hg2 mi
7:30 AM84 °FHaze.7 mph27%29.68 "Hg2 mi
7:00 AM84 °FScattered clouds.3 mph74%29.65 "Hg2 mi
Weather by CustomWeather, © 2016

See weather overviewHow to use our weather pages